| time (UTC) | temp C | wind direction | speed KPH | gust KPH | rain 1hr cm | rain 24hr cm | rain mn cm | humidity % | barometer mb |
| 20260504191506 | -37 | 53 | 11.3 | 17.7 | 0.00 | 4.95 | 3.58 | 1015.5 | |
| 20260504185518 | -37 | 24 | 12.9 | 19.3 | 0.00 | 5.46 | 3.58 | 1015.8 | |
| 20260504182603 | -37 | 31 | 16.1 | 20.9 | 0.00 | 5.46 | 3.58 | 1016.0 | |
| 20260504181040 | -37 | 23 | 17.7 | 20.9 | 0.00 | 5.46 | 3.58 | 1016.2 | |
| 20260504175022 | -37 | 24 | 16.1 | 22.5 | 0.00 | 6.96 | 3.58 | 1016.3 | |
| 20260504172620 | -37 | 24 | 19.3 | 24.1 | 0.00 | 6.96 | 3.58 | 1016.4 | |
| 20260504171003 | -37 | 16 | 17.7 | 22.5 | 0.00 | 6.96 | 3.58 | 1016.4 | |
| 20260504151013 | -37 | 21 | 8.0 | 16.1 | 0.00 | 7.01 | 3.58 | 1016.9 | |
| 20260504141013 | -37 | 334 | 6.4 | 12.9 | 0.00 | 7.01 | 3.58 | 1016.7 | |
| 20260504081009 | -32 | 324 | 11.3 | 16.1 | 0.71 | 7.01 | 3.58 | 1014.7 | |
| 20260504044655 | -43 | 165 | 8.0 | 17.7 | 0.13 | 3.58 | 0.13 | 1016.7 | |
| 20260504043139 | -43 | 155 | 6.4 | 16.1 | 0.10 | 3.56 | 0.10 | 1016.8 | |
| 20260504035619 | -44 | 163 | 6.4 | 14.5 | 0.05 | 3.58 | 3.45 | 1016.2 | |
| 20260504034100 | -45 | 182 | 8.0 | 12.9 | 0.10 | 3.58 | 3.45 | 1016.2 | |
| 20260504025534 | -45 | 147 | 9.7 | 22.5 | 0.15 | 3.53 | 3.40 | 1016.7 | |
| 20260504024003 | -46 | 128 | 12.9 | 19.3 | 0.10 | 3.48 | 3.35 | 1016.7 | |
| 20260504014620 | -47 | 151 | 14.5 | 29.0 | 0.00 | 3.38 | 3.25 | 1016.3 | |
| 20260504013103 | -47 | 124 | 9.7 | 16.1 | 0.00 | 3.38 | 3.25 | 1016.2 | |
| 20260504011550 | -45 | 152 | 4.8 | 11.3 | 0.00 | 3.38 | 3.25 | 1016.5 | |
| 20260504005009 | -47 | 86 | 4.8 | 9.7 | 0.00 | 3.38 | 3.25 | 1015.9 | |
| 20260504003605 | -47 | 68 | 6.4 | 9.7 | 0.00 | 3.38 | 3.25 | 1016.0 | |
| 20260504001614 | -47 | 64 | 4.8 | 9.7 | 0.00 | 3.38 | 3.25 | 1015.7 | |
| 20260503235104 | -47 | 84 | 6.4 | 14.5 | 0.00 | 3.38 | 3.25 | 1015.3 | |
| 20260503233003 | -45 | 95 | 9.7 | 14.5 | 0.00 | 3.38 | 3.25 | 1015.3 | |
| 20260503231549 | -47 | 99 | 8.0 | 12.9 | 0.00 | 3.38 | 3.25 | 1014.8 | |
| 20260503225603 | -45 | 99 | 6.4 | 12.9 | 0.00 | 3.38 | 3.25 | 1015.0 | |
| 20260503223631 | -47 | 76 | 3.2 | 8.0 | 0.00 | 3.38 | 3.25 | 1014.7 | |
| 20260503221549 | -47 | 59 | 4.8 | 9.7 | 0.00 | 3.38 | 3.25 | 1014.7 | |
| 20260503215650 | -47 | 62 | 3.2 | 8.0 | 0.00 | 3.38 | 3.25 | 1014.8 | |
| 20260503213605 | -46 | 27 | 4.8 | 11.3 | 0.00 | 3.38 | 3.25 | 1015.0 | |
| 20260503211526 | -45 | 75 | 6.4 | 12.9 | 0.00 | 3.38 | 3.25 | 1015.0 | |
| 20260503205049 | -44 | 70 | 8.0 | 12.9 | 0.46 | 3.38 | 3.25 | 1015.7 | |
| 20260503203629 | -45 | 97 | 3.2 | 9.7 | 0.66 | 3.38 | 3.25 | 1016.1 | |
| 20260503201549 | -45 | 18 | 8.0 | 17.7 | 0.81 | 3.38 | 3.25 | 1015.9 | |
| 20260503195026 | -45 | 201 | 4.8 | 11.3 | 0.94 | 2.84 | 2.74 | 1016.7 |